This is the latest recevied weather packets stored in our database for station/object KQ4UPF. If no packets are shown the sender has not sent any weather packets the latest 10 day(s).
| Time | Temp. | Humidity | Pressure | Rain* | Wind** | Luminosity | Snow |
|---|---|---|---|---|---|---|---|
| 1777856055 | 12.78° C | 78% | 1018.3 hPa | 0 mm | - | 0 W/m² | - |
| 1777855753 | 12.78° C | 76% | 1018.4 hPa | 0 mm | - | 0 W/m² | - |
| 1777855451 | 12.78° C | 77% | 1018.3 hPa | 0 mm | - | 1 W/m² | - |
| 1777855148 | 12.78° C | 77% | 1018.3 hPa | 0 mm | - | 1 W/m² | - |
| 1777854844 | 12.78° C | 75% | 1018.4 hPa | 0 mm | - | 3 W/m² | - |
| 1777854540 | 13.33° C | 72% | 1018.3 hPa | 0 mm | - | 5 W/m² | - |
| 1777854238 | 13.89° C | 73% | 1018.3 hPa | 0 mm | - | 9 W/m² | - |
| 1777853935 | 13.89° C | 70% | 1018.5 hPa | 0 mm | - | 12 W/m² | - |
| 1777853632 | 13.89° C | 67% | 1018.3 hPa | 0 mm | - | 16 W/m² | - |
| 1777853329 | 14.44° C | 62% | 1018.2 hPa | 0 mm | - | 20 W/m² | - |
| 1777853026 | 15° C | 61% | 1018.3 hPa | 0 mm | - | 24 W/m² | - |
| 1777852724 | 15.56° C | 61% | 1018.1 hPa | 0 mm | - | 28 W/m² | - |
| 1777852421 | 15.56° C | 59% | 1018.1 hPa | 0 mm | - | 31 W/m² | - |
| 1777852118 | 16.11° C | 59% | 1018.1 hPa | 0 mm | - | 34 W/m² | - |
| 1777851816 | 16.11° C | 55% | 1018.2 hPa | 0 mm | - | 37 W/m² | - |
| 1777851514 | 16.67° C | 54% | 1018.2 hPa | 0 mm | - | 40 W/m² | - |
| 1777851209 | 16.67° C | 55% | 1018.2 hPa | 0 mm | - | 43 W/m² | - |
| 1777850906 | 16.67° C | 51% | 1018.2 hPa | 0 mm | - | 45 W/m² | - |
| 1777850603 | 17.22° C | 53% | 1018.3 hPa | 0 mm | - | 47 W/m² | - |
| 1777850301 | 17.22° C | 51% | 1018.3 hPa | 0 mm | - | 49 W/m² | - |
| 1777849998 | 17.22° C | 51% | 1018.4 hPa | 0 mm | - | 51 W/m² | - |
| 1777849694 | 17.78° C | 51% | 1018.3 hPa | 0 mm | - | 53 W/m² | - |
| 1777849391 | 18.33° C | 49% | 1018.3 hPa | 0 mm | - | 55 W/m² | - |
| 1777849089 | 18.89° C | 47% | 1018.3 hPa | 0 mm | - | 64 W/m² | - |
| 1777848784 | 19.44° C | 44% | 1018.5 hPa | 0 mm | - | 147 W/m² | - |
* Rain latest hour (hover to see other rain measurements)
** Current wind speed in m/s (hover to see current wind gust speed)